TimeEDT,TemperatureF,Dew PointF,Humidity,Sea Level PressureIn,VisibilityMPH,Wind Direction,Wind SpeedMPH,Gust SpeedMPH,PrecipitationIn,Events,Conditions,WindDirDegrees,DateUTC
12:53 AM,42.1,39.0,89,29.91,10.0,Calm,Calm,-,N/A,,Clear,0,2013-09-25 04:53:00
1:53 AM,39.9,36.0,86,29.91,10.0,Calm,Calm,-,N/A,,Clear,0,2013-09-25 05:53:00
2:53 AM,37.9,35.1,89,29.90,10.0,Calm,Calm,-,N/A,,Clear,0,2013-09-25 06:53:00
3:53 AM,36.0,34.0,93,29.90,10.0,Calm,Calm,-,N/A,,Clear,0,2013-09-25 07:53:00
4:53 AM,36.0,33.1,89,29.89,10.0,Calm,Calm,-,N/A,,Clear,0,2013-09-25 08:53:00
5:53 AM,36.0,33.1,89,29.89,10.0,NW,4.6,-,N/A,,Clear,310,2013-09-25 09:53:00
6:53 AM,37.0,35.1,93,29.89,10.0,WNW,3.5,-,N/A,,Clear,300,2013-09-25 10:53:00
7:53 AM,53.1,48.0,83,29.89,10.0,Calm,Calm,-,N/A,,Clear,0,2013-09-25 11:53:00
8:53 AM,60.1,46.0,60,29.91,10.0,NNW,10.4,-,N/A,,Clear,330,2013-09-25 12:53:00
9:53 AM,63.0,45.0,52,29.91,10.0,North,13.8,-,N/A,,Clear,360,2013-09-25 13:53:00
10:53 AM,64.0,45.0,50,29.90,10.0,NNW,10.4,-,N/A,,Clear,330,2013-09-25 14:53:00
11:53 AM,64.9,46.0,50,29.91,10.0,NNE,6.9,-,N/A,,Partly Cloudy,20,2013-09-25 15:53:00
12:53 PM,64.9,45.0,48,29.90,10.0,North,8.1,16.1,N/A,,Partly Cloudy,350,2013-09-25 16:53:00
1:53 PM,66.0,46.0,48,29.89,10.0,North,5.8,-,N/A,,Partly Cloudy,360,2013-09-25 17:53:00
2:53 PM,64.9,46.9,52,29.89,10.0,NE,10.4,-,N/A,,Mostly Cloudy,50,2013-09-25 18:53:00
3:53 PM,64.9,46.0,50,29.89,10.0,ENE,11.5,-,N/A,,Clear,60,2013-09-25 19:53:00
4:53 PM,63.0,45.0,52,29.90,10.0,ENE,12.7,-,N/A,,Clear,70,2013-09-25 20:53:00
5:53 PM,60.1,46.0,60,29.91,10.0,East,6.9,-,N/A,,Overcast,80,2013-09-25 21:53:00
6:53 PM,59.0,46.9,64,29.92,10.0,ENE,4.6,-,N/A,,Overcast,70,2013-09-25 22:53:00
7:53 PM,57.9,46.9,67,29.94,10.0,Calm,Calm,-,N/A,,Overcast,0,2013-09-25 23:53:00
8:53 PM,57.9,46.9,67,29.95,10.0,Calm,Calm,-,N/A,,Overcast,0,2013-09-26 00:53:00
9:53 PM,55.9,48.0,75,29.96,10.0,Calm,Calm,-,N/A,,Overcast,0,2013-09-26 01:53:00
10:53 PM,54.0,48.0,80,29.97,10.0,Calm,Calm,-,N/A,,Overcast,0,2013-09-26 02:53:00
11:53 PM,55.0,48.0,77,29.97,10.0,Calm,Calm,-,N/A,,Overcast,0,2013-09-26 03:53:00